Dewpoint
51 51 50 49 49 48 49 49 49 49 49 49 49 49 50 50 51 51 52 52 53 53 54 54 55 55 55 55 55 55 55 46 36 33 26 28 43 54 54 55 57 58 57 24 25 25 20 23 21 26 23 21 19 20 19 24 14 18 19 17 12 14 12 14 13 12 14 11 12 14 15 10 10 14 21 20 29 32 32 33 36 38 39 40 41 44 45 48
50 51 50 50 50 48 48 49 49 49 49 48 49 49 50 50 51 51 52 52 53 54 54 54 55 55 55 55 55 55 53 43 32 29 30 36 57 55 57 58 59 58 43 19 21 21 18 17 23 20 18 19 17 15 18 17 14 18 20 18 9 16 12 19 15 15 12 11 13 14 16 13 11 14 15 16 23 26 24 32 34 34 38 40 41 41 44 48
51 51 50 49 49 49 48 48 48 49 49 49 49 49 50 50 51 52 52 53 53 54 54 54 55 55 55 55 55 55 51 28 23 18 19 55 58 57 58 61 61 55 21 21 19 22 21 22 24 19 16 16 15 14 15 14 13 14 17 11 11 16 16 18 15 16 15 14 12 13 12 13 13 14 14 11 19 21 19 28 32 33 35 37 40 42 46 49
50 50 50 49 49 49 49 50 49 49 49 49 50 50 50 51 51 52 52 52 53 53 54 54 55 55 55 55 55 54 43 19 16 20 26 55 58 58 59 61 59 44 31 25 22 24 29 28 22 16 14 15 14 11 13 12 16 10 12 10 9 15 10 10 16 11 10 11 12 12 13 12 13 13 11 11 13 13 17 29 30 30 35 37 41 45 47 48
50 50 50 50 50 50 50 50 49 49 49 50 50 50 50 51 51 52 52 53 53 53 53 54 54 55 55 55 55 53 23 8 10 24 30 56 60 59 59 59 58 37 33 29 32 30 28 28 22 11 15 14 11 11 10 9 11 10 9 10 14 16 10 9 9 8 10 11 10 10 11 10 14 13 8 8 9 7 6 11 30 32 36 40 43 45 46 45
51 51 51 51 51 51 49 49 49 49 50 49 49 50 50 51 51 52 52 53 53 53 53 54 54 55 55 55 53 47 26 1 10 21 57 59 60 61 60 60 56 35 33 31 29 26 22 18 9 10 10 10 9 13 6 9 14 10 11 12 16 15 10 13 11 12 8 8 7 7 9 12 13 14 14 6 7 8 10 11 26 34 36 40 46 47 46 45
51 51 50 50 50 50 50 49 50 50 49 49 49 50 50 51 52 52 52 52 53 53 53 54 54 55 55 54 51 36 33 35 38 31 51 61 62 61 62 60 50 35 33 29 28 18 17 12 17 7 5 3 6 5 8 12 15 15 9 12 15 14 13 14 10 12 8 8 8 9 11 9 11 9 12 10 8 9 17 27 29 35 39 42 46 47 47 47
51 51 50 49 50 50 50 51 50 49 49 50 50 50 51 51 52 52 52 52 52 53 53 54 54 54 55 50 37 35 36 29 36 40 58 53 54 56 50 41 38 34 28 25 20 15 16 11 6 8 6 5 5 5 9 10 12 12 12 14 13 13 14 13 9 9 10 11 11 11 9 9 10 9 9 9 10 21 31 30 34 36 39 41 47 45 46 49
51 50 50 50 50 50 50 50 50 50 50 49 50 50 51 51 51 52 52 52 52 52 53 54 54 55 54 44 36 27 22 36 40 39 41 22 23 27 30 26 38 32 30 23 20 18 16 15 13 9 4 5 8 8 11 10 12 19 15 20 13 14 17 13 11 12 13 13 16 10 15 15 16 15 13 14 15 26 34 34 35 37 41 39 44 47 47 48
50 50 50 50 50 50 49 50 50 51 50 50 50 50 50 51 51 51 52 52 52 52 53 54 54 55 50 41 36 22 23 33 28 30 30 22 22 22 26 32 30 22 22 23 22 21 20 19 17 16 10 10 11 11 16 9 11 22 17 14 14 16 15 15 10 15 15 20 19 12 14 14 14 14 7 15 19 34 33 34 35 38 41 40 43 47 48 49
51 51 50 50 50 50 50 50 50 50 51 51 50 51 51 50 51 51 52 52 53 53 53 53 54 52 45 37 31 23 37 15 30 25 21 19 18 19 19 25 27 23 23 23 24 23 23 22 23 16 14 7 12 11 9 12 18 18 15 9 11 14 13 11 18 18 14 11 19 14 13 14 15 15 9 16 25 34 33 33 34 35 37 37 43 44 46 48
51 50 50 51 50 50 50 50 51 51 51 51 51 51 51 51 52 52 52 52 53 53 53 53 54 52 43 32 28 27 39 33 41 31 21 17 16 19 19 21 24 23 23 23 24 24 22 24 17 11 7 16 7 14 9 10 11 11 9 10 7 16 11 11 10 13 13 9 16 16 12 10 14 11 14 18 26 33 32 32 33 34 35 38 39 42 44 44
51 51 51 50 50 51 50 50 51 51 51 51 51 51 51 52 52 52 52 52 52 52 53 53 53 52 35 36 26 32 36 41 36 24 22 23 21 19 20 21 22 24 24 24 25 25 24 19 18 12 17 12 11 9 14 17 10 11 12 7 6 8 7 13 16 13 11 10 16 15 10 11 12 13 14 22 27 32 31 31 32 33 36 35 38 40 43 45
51 51 50 50 50 50 50 51 51 51 51 51 52 52 52 52 52 52 53 52 53 53 52 53 52 48 36 24 27 28 38 40 24 16 18 34 14 14 15 19 24 25 25 23 25 28 27 25 17 14 21 14 10 17 21 23 22 5 8 16 12 6 8 12 19 15 12 16 13 10 13 10 15 12 17 24 28 31 30 31 32 32 36 36 37 39 40 44
51 50 51 50 50 50 51 51 51 52 52 52 52 52 52 52 53 53 53 53 53 53 53 54 52 38 42 30 33 38 50 23 20 20 24 15 14 15 14 15 18 25 29 30 25 33 30 27 27 24 20 25 17 17 19 22 22 19 12 13 15 11 10 17 24 15 8 13 14 10 15 10 9 11 18 23 28 32 30 32 31 34 35 37 36 37 38 41
51 51 50 50 50 50 50 51 51 51 51 52 52 52 52 52 53 53 53 52 53 52 50 45 43 35 32 24 26 38 30 20 18 18 16 16 15 15 15 14 20 25 27 28 37 37 37 31 25 23 23 18 17 19 19 16 15 17 17 21 16 19 15 15 17 18 14 12 12 12 12 12 11 11 17 27 27 32 31 32 34 33 38 38 36 37 38 40
51 51 51 50 50 50 51 51 51 51 51 51 52 52 52 52 52 53 53 53 53 52 52 42 45 42 27 26 31 29 26 26 20 17 14 24 17 14 13 15 18 28 33 31 37 34 32 31 33 27 26 24 25 21 15 17 15 14 20 18 22 15 18 13 19 19 21 12 9 14 11 14 15 15 15 25 25 28 29 31 34 36 35 35 35 34 35 39
51 51 51 51 51 50 50 51 51 51 51 51 51 51 50 51 53 52 52 52 51 51 51 46 38 28 20 23 26 26 21 19 16 20 15 19 15 13 14 12 24 28 37 28 28 29 32 29 33 23 27 31 27 19 16 11 18 16 16 17 17 22 22 18 19 19 23 15 12 16 15 14 16 18 19 23 28 24 28 29 31 29 30 31 32 32 33 35
51 51 51 51 50 51 51 51 51 51 51 51 50 51 53 53 52 48 44 45 30 32 25 33 33 21 20 23 27 26 23 19 18 15 12 14 26 27 29 31 27 22 29 34 27 31 33 31 32 23 17 18 19 18 14 17 21 16 16 18 17 16 15 13 22 25 23 18 13 14 12 13 17 18 21 26 31 29 28 32 34 34 31 32 31 31 33 36
51 51 51 51 51 51 50 50 51 51 51 50 48 49 49 46 43 41 41 36 29 28 20 20 27 27 28 29 29 27 23 14 12 12 12 16 14 12 12 23 38 31 34 29 31 36 36 28 23 23 22 31 32 34 34 29 29 28 27 24 19 15 19 23 23 26 32 24 21 20 21 20 20 20 25 29 30 30 29 30 33 33 34 31 30 33 35 38
51 51 51 51 51 51 51 51 51 51 51 49 48 45 40 39 36 35 36 36 35 32 28 27 27 24 23 29 30 28 31 27 11 11 11 37 26 11 9 15 33 28 23 29 26 34 35 28 27 33 40 41 31 33 33 31 34 29 26 22 18 23 16 20 23 30 28 25 22 27 24 24 25 28 29 31 29 28 31 31 34 35 33 33 32 33 35 37
51 51 51 51 51 51 51 51 51 51 50 47 45 40 40 40 39 39 37 34 36 34 33 32 33 29 32 33 32 21 21 17 19 12 12 13 11 9 15 16 26 20 28 28 28 30 30 22 28 32 35 35 34 34 35 34 31 30 22 24 18 19 22 25 28 31 30 29 23 26 23 23 27 28 29 31 31 31 32 33 34 34 34 33 32 34 37 38
50 51 51 51 51 51 51 51 51 50 48 46 42 40 39 40 43 44 40 37 35 36 34 33 32 32 32 37 36 25 29 22 19 14 9 13 11 10 13 11 23 24 26 33 19 23 21 15 33 34 35 34 32 35 34 32 32 27 23 17 12 22 19 16 24 30 31 29 24 26 23 24 29 30 30 32 31 33 39 38 38 38 34 34 34 35 38 39
50 50 51 51 51 51 51 51 50 49 46 40 39 40 40 41 42 40 39 35 33 35 34 33 33 33 32 27 31 27 28 24 12 11 22 10 14 9 15 15 18 19 10 27 30 17 15 26 37 35 32 33 31 32 32 26 24 29 30 23 20 23 24 19 20 29 33 30 32 25 23 20 28 22 23 29 31 34 35 31 33 35 38 38 39 38 39 40
49 50 50 51 51 51 51 50 47 47 44 46 45 44 43 44 45 40 43 35 31 36 39 35 34 34 32 23 19 26 19 10 11 12 19 12 11 9 11 14 13 9 12 25 16 15 15 26 35 31 31 33 32 27 31 30 21 24 31 28 28 32 27 27 29 27 21 22 29 26 12 18 24 27 24 25 28 28 29 30 31 33 36 37 37 39 40 43
49 50 50 50 51 50 50 45 42 43 39 37 38 39 43 45 45 43 41 31 28 28 31 29 32 22 30 21 13 15 14 16 13 12 17 11 28 16 18 15 18 13 23 22 18 22 21 34 33 31 29 31 31 29 32 30 24 22 17 32 33 32 32 30 27 24 20 14 25 31 16 12 25 18 19 28 28 28 31 31 31 33 35 35 37 38 40 43
49 50 49 50 50 50 36 33 35 42 40 38 41 44 44 46 49 44 36 29 25 30 26 29 23 20 29 19 11 17 17 18 21 13 13 20 13 24 14 16 22 25 30 31 16 10 32 31 31 32 31 28 26 22 30 29 22 16 28 30 29 29 27 30 28 24 20 27 30 28 22 16 13 21 28 28 27 25 27 26 31 31 34 36 38 37 40 42
49 49 49 49 50 49 40 42 43 41 37 40 42 43 45 50 46 49 37 21 20 27 20 23 20 24 14 22 15 15 17 19 17 12 13 13 17 19 9 10 13 17 26 19 7 25 34 31 32 29 31 25 21 28 34 32 24 22 31 29 30 28 31 31 24 24 26 22 17 23 27 21 18 23 28 27 20 22 22 25 26 28 31 33 36 36 37 41
50 49 49 49 50 49 47 45 44 42 43 43 43 44 47 48 44 37 27 21 31 22 25 19 23 20 16 12 11 13 14 17 13 12 15 12 13 12 12 15 18 22 25 24 14 27 28 33 33 33 27 23 29 28 30 31 24 29 32 31 30 32 31 29 23 23 24 20 16 22 25 11 9 23 21 23 21 22 23 23 24 27 30 32 34 37 38 38
50 50 49 49 48 48 48 47 45 44 45 43 44 48 50 49 41 31 21 19 28 20 19 16 21 20 17 17 13 16 13 16 16 14 13 13 14 15 15 18 16 24 15 26 19 21 25 31 33 28 25 27 29 32 32 29 33 33 31 24 22 24 26 26 25 23 22 16 18 24 26 20 9 16 19 20 22 24 22 24 27 30 29 26 33 35 36 35
50 50 49 49 45 41 44 36 41 45 44 45 47 48 48 38 34 23 18 26 25 22 20 22 20 22 24 21 17 19 12 14 14 13 9 11 16 16 15 10 24 23 23 27 18 21 17 30 27 27 34 28 30 30 31 30 29 29 25 23 21 21 22 23 21 22 16 14 18 21 26 24 13 11 21 27 28 26 25 21 25 24 28 27 31 30 32 33
50 49 49 49 46 49 39 32 44 45 45 49 49 43 41 22 28 18 23 28 25 24 21 23 19 24 24 16 13 14 14 13 14 14 12 9 18 13 15 13 23 11 11 17 9 22 18 17 27 24 37 26 28 25 27 29 29 24 24 21 16 13 16 14 22 14 15 12 22 24 25 20 16 22 22 25 24 24 29 27 25 27 25 32 31 31 30 31
49 49 49 49 49 49 47 46 48 47 48 50 45 39 31 19 14 22 27 28 22 25 23 21 21 23 24 15 14 16 12 14 18 13 17 14 11 20 18 13 21 18 8 22 14 17 15 23 22 24 24 30 24 18 23 23 26 22 21 21 16 11 11 8 10 12 11 15 20 23 24 17 20 20 24 23 25 25 27 29 29 27 29 32 30 29 27 30
49 49 49 49 49 48 49 51 49 48 45 45 44 39 23 19 17 39 31 28 23 29 26 24 24 21 14 13 13 14 11 16 16 16 13 19 11 16 16 12 21 18 19 24 10 12 7 7 15 20 16 29 24 18 24 23 26 22 21 19 19 13 11 10 10 9 9 10 19 23 18 17 19 15 26 28 29 27 26 27 28 30 29 32 29 27 27 28
47 47 46 47 48 50 50 49 49 48 46 44 32 28 14 14 23 28 27 28 26 26 24 25 22 14 21 15 16 16 14 16 16 18 14 14 17 19 23 13 21 20 25 14 22 17 7 10 16 20 21 26 24 23 25 25 26 25 25 20 20 19 20 8 13 10 10 13 16 18 16 21 19 23 27 29 26 26 30 30 32 30 31 32 32 31 29 31
48 49 49 48 50 49 50 49 49 48 46 35 31 20 14 26 19 24 27 29 26 24 25 21 20 21 22 21 23 18 22 16 14 12 19 13 18 17 17 24 20 14 18 15 23 12 12 11 21 22 23 25 24 24 22 19 12 24 20 20 20 23 20 19 18 21 20 17 14 16 20 22 22 18 23 26 26 25 27 27 28 29 30 34 32 31 32 34
48 50 47 45 41 48 50 48 45 46 42 34 29 19 30 29 21 27 36 25 25 25 23 16 22 17 20 21 22 20 21 19 16 13 19 16 21 15 15 25 20 16 15 19 17 21 15 12 20 16 15 20 23 24 23 22 21 22 20 21 22 23 28 21 14 14 14 13 14 17 19 19 14 12 20 23 26 25 25 24 25 31 33 30 31 36 35 31
48 51 48 39 39 50 49 48 47 44 42 37 27 35 33 27 28 28 28 26 25 25 25 23 24 18 19 22 22 19 23 19 23 16 19 17 17 20 19 17 15 18 18 20 14 23 16 12 13 15 16 21 23 22 21 20 21 21 20 22 18 17 16 20 18 11 11 10 12 15 14 16 13 13 18 20 23 25 25 25 27 26 28 29 31 31 34 37
45 46 43 38 40 46 51 48 46 44 41 35 27 27 28 30 28 26 28 27 26 25 24 25 22 25 22 23 24 20 21 22 23 19 17 19 14 21 23 19 23 27 22 15 17 25 22 15 16 20 19 21 24 21 19 21 19 23 22 20 21 22 21 18 18 20 13 11 10 14 11 12 17 17 21 19 25 27 27 28 27 26 27 31 32 33 32 35
43 41 35 43 41 47 49 50 45 41 38 29 32 31 29 28 25 29 27 24 20 25 27 25 23 24 25 24 21 21 23 20 19 22 18 27 15 22 27 30 27 28 20 17 18 28 20 25 13 16 20 22 18 21 20 21 21 20 20 21 20 23 24 19 22 14 12 11 11 10 9 9 20 25 24 20 25 29 29 29 30 31 30 31 32 35 36 35
41 41 39 44 40 44 50 44 41 37 35 35 32 29 29 22 27 26 28 29 20 25 25 26 28 25 29 25 22 23 22 21 20 20 18 20 19 21 29 29 29 26 26 22 19 27 20 20 17 17 15 17 17 22 19 21 20 21 20 20 18 19 18 14 15 21 17 12 12 10 12 15 24 34 29 26 30 31 29 28 30 29 30 33 37 37 37 37
40 37 37 41 41 48 47 38 35 37 33 31 27 24 24 32 24 23 24 23 21 21 25 26 27 26 28 26 24 23 23 23 21 21 21 19 23 20 23 31 31 29 24 24 28 34 31 27 23 20 20 19 17 18 23 22 21 20 22 20 19 23 21 15 14 17 17 14 12 12 12 14 30 33 30 29 30 27 29 28 29 30 32 34 36 36 37 37
37 36 42 41 40 46 42 36 35 30 31 27 29 25 27 23 25 24 21 22 21 23 26 26 24 24 27 24 24 23 24 25 22 19 21 21 23 22 26 27 25 26 25 31 33 30 37 25 26 23 23 24 23 20 21 24 22 22 24 26 21 20 22 20 18 22 19 19 14 15 14 18 27 33 31 32 31 30 30 29 31 31 34 35 35 35 35 36
38 39 38 36 38 46 41 33 27 24 32 31 29 25 25 22 25 23 22 22 23 25 24 25 25 23 24 25 26 23 27 23 24 24 24 25 23 29 30 26 24 24 26 32 27 40 25 32 26 24 21 20 21 21 19 22 24 23 24 27 26 22 25 27 24 23 17 18 16 14 14 15 28 35 32 30 29 28 28 29 32 31 36 36 34 34 35 36
40 37 41 36 37 40 32 34 29 24 30 30 29 27 27 27 24 25 24 23 23 24 25 25 24 24 26 26 27 26 26 23 25 29 29 30 28 32 31 28 25 25 27 34 38 38 32 31 28 22 19 17 16 15 16 21 26 28 29 28 28 22 24 24 18 20 20 21 19 16 14 23 25 27 25 28 28 29 30 31 32 32 33 33 33 35 36 36
32 21 31 31 32 36 34 36 33 30 28 30 24 25 27 27 27 28 25 26 24 26 23 23 25 25 25 27 28 26 23 30 27 28 25 26 28 31 31 27 27 25 37 42 41 38 30 33 32 27 24 22 20 22 26 28 27 26 27 28 28 28 27 28 29 25 22 21 20 21 21 22 22 21 23 24 29 28 29 31 30 30 33 35 36 36 36 36
36 32 29 24 31 30 31 32 32 31 27 28 22 25 27 28 28 26 27 24 27 26 27 27 28 28 28 28 28 27 29 28 29 27 27 28 29 30 28 26 26 32 37 40 41 38 34 30 31 32 30 29 28 28 29 29 28 28 27 26 26 28 30 26 24 23 25 21 19 24 25 25 25 24 23 25 27 29 32 32 32 32 33 33 35 36 35 34
26 28 33 32 23 22 27 26 32 31 28 28 25 29 28 28 29 28 29 27 27 28 26 26 26 27 27 28 28 27 28 27 28 25 29 28 28 26 24 26 24 30 34 35 43 37 27 24 28 30 29 29 30 30 30 31 31 30 29 29 29 29 30 28 26 25 27 22 19 24 27 24 24 25 26 26 29 30 30 31 34 35 33 32 33 32 32 33
34 33 34 35 27 31 30 32 33 31 26 30 30 30 29 29 29 28 28 29 28 28 25 26 29 25 27 29 29 28 28 23 24 28 28 28 27 26 25 26 25 29 31 34 40 40 33 27 29 29 28 28 29 29 30 30 31 30 30 30 30 30 29 29 26 27 27 27 28 27 27 26 27 27 27 28 33 32 32 33 33 31 31 32 32 33 32 30
33 34 32 35 33 34 34 32 31 29 26 31 27 30 29 29 29 30 29 28 27 29 27 27 26 27 29 29 30 30 30 30 28 26 30 27 25 26 26 26 24 28 26 27 29 36 31 22 34 29 27 26 26 27 27 27 30 30 30 31 31 31 30 30 29 29 29 28 28 27 25 26 28 31 28 32 32 31 32 30 31 32 32 33 33 32 29 24
38 38 37 32 28 32 34 31 31 30 24 29 30 31 31 30 30 30 30 30 28 28 28 27 28 30 30 29 31 31 31 31 31 29 29 28 23 26 22 26 27 25 22 25 29 32 34 26 32 27 23 22 23 23 23 26 30 28 27 27 28 28 28 29 29 30 29 28 27 27 24 24 27 28 31 32 32 30 30 31 33 33 33 33 30 26 24 24
39 39 35 32 27 31 28 30 28 24 21 30 32 32 31 30 31 30 28 26 27 28 29 29 31 30 30 30 28 28 30 31 30 29 29 28 28 26 25 23 22 23 28 25 29 27 32 26 23 22 20 20 21 21 21 24 26 24 24 27 27 27 27 29 30 31 30 29 27 25 25 26 28 31 28 29 31 31 32 31 33 33 32 28 24 22 24 30